User: anonymous   Login
Location: Bonn
(50.7330°N, 7.1000°E)
Time: 11:37:50
(UTC+01:00)
Language:

Iridium 84 - Orbit

View from above orbital plane
View from above orbital plane
View from above satellite
View from above satellite

Ground track
Ground track

The orbit data is extracted from the following two-line orbital elements,

1 25530U 98066D   14351.50296175  .00000431  00000-0  14698-3 0  9161
2 25530 086.3942 011.5209 0002181 108.2800 251.8633 14.34216505846184
Epoch (UTC): 17 December 2014 12:04:15
Eccentricity: 0.0002181
inclination: 86.3942°
perigee height: 776 km
apogee height: 779 km
right ascension of ascending node: 11.5209°
argument of perigee: 108.2800°
revolutions per day: 14.34216505
mean anomaly at epoch: 251.8633°
orbit number at epoch: 84618

The dashed part of the orbit path shows where the satellite is in the earth's shadow,  

DLR